COSMOS 2532

Satellite information

Favourite Embed

Satellite Type and Status

PAYLOADIN ORBIT

Key statistics

Satellite COSMOS 2532 at a glance.

Uptime

2413

Days in orbit

Revolutions

≈ 12.4

Per day

Orbit

LEO

Low Earth Orbit

Inclination

82.5

Latest

Satellite identification and parameters

Extended collection of information and parameters for COSMOS 2532.

Object identification

Identified? True

Debris? False

Object name: COSMOS 2532

International designator: 2018-097C

Object number (NORAD): 43753

Object ID (CCSDS): 43753

Country: COMMONWEALTH OF INDEPENDENT STATES (CIS)

Current information (Y/N): Y

RCS size: LARGE

Orbital parameters

Period: 115.862 minutes

Inclination: 82.5126 deg

SMA: 7872.641 km

Apoapsis: 1509.528 km

Periapsis: 1479.485 km

RAAN: 75.8261 deg

Eccentricy: 0.0019081

Argument of periapsis: 85.8399 deg

Mean anomaly: 274.4861 deg

Mean motion: 12.42859559 rev/day

Mean motion (dot): 0.00000034 rev/day2

B* drag term: 0.00017585 1/REarth

Two-line elements (TLE)

Creation date: July 8, 2025, 2:27 a.m.

Reference frame: TEME

Reference center: EARTH

Epoch: July 7, 2025, 11:31 p.m. UTC

TLE line 0: 0 COSMOS 2532

TLE line 1: 1 43753U 18097C 25188.98000084 .00000034 00000-0 17585-3 0 9996

TLE line 2: 2 43753 82.5126 75.8261 0019081 85.8399 274.4861 12.42859559299516

Live tracking on map

Real-time ground track for satellite COSMOS 2532.

In-orbit conjunctions

There are no conjunctions computed for COSMOS 2532, at the moment. Check back to stay up to date, as we update our databases every day.

Go to all conjunctions

Associated space launch

Rodnik is a series of military communications satellites.

COSMOS 2532 was lifted into orbit during the mission ‘Rokot / Briz-KM | 3 x Rodnik (Kosmos 2530, 2531, 2532)’, on board a Rokot/Briz-KM space rocket.

The launch took place on Nov. 30, 2018, 2:27 a.m. from 133/3 (133L).

For more information about the launch, click the button.

Launch to space Rokot / Briz-KM | 3 x Rodnik (Kosmos 2530, 2531, 2532)
Rokot / Briz-KM | 3 x Rodnik (Kosmos 2530, 2531, 2532)

Agency: N/A

Status: Launch Successful

Launch date: Nov. 30, 2018, 2:27 a.m. UTC

Rocket: Rokot/Briz-KM

Launch pad: 133/3 (133L)

Location: Plesetsk Cosmodrome, Russian Federation

...

Latest news about this satellite

There are no fresh news available about this satellite. Check back as we update our databases every day.


Newsletter sign-up

Weekly statistics, charts and insights to help you stay on top of the space industry.